Location: Gellin
(53.4498°N, 14.3207°E)
Time: 23:23:50
(UTC+00:00)

Cosmos 2242 Rocket - Pass Details

Date: 03 March 2021
Orbit: 617 x 652 km, 82.5° (Epoch: 12 April)

Event Time Altitude Azimuth Distance (km) Brightness Sun altitude
Rises 17:25:43 0° 353° (N) 2,969 7.1 -6.9°
Reaches altitude 10° 17:28:09 10° 2° (N) 2,049 6.2 -7.3°
Maximum altitude 17:32:21 36° 70° (ENE) 1,024 4.2 -7.9°
Drops below altitude 10° 17:36:28 10° 137° (SE) 2,014 5.8 -8.5°
Sets 17:38:50 0° 146° (SE) 2,911 6.7 -8.9°
